Time,TemperatureF,DewpointF,PressureIn,WindDirection,WindDirectionDegrees,WindSpeedMPH,WindSpeedGustMPH,Humidity,HourlyPrecipIn,Conditions,Clouds,dailyrainin,SoftwareType,DateUTC
2013-03-11 00:10:00,28.2,25.9,29.84,NW,313,12.0,18.0,91,0.00,,---,0.00,VWS V14.01,2013-03-11 05:10:00,
2013-03-11 00:25:00,28.2,25.9,29.85,WNW,284,11.0,17.0,91,0.00,,---,0.00,VWS V14.01,2013-03-11 05:25:00,
2013-03-11 00:40:00,28.1,25.8,29.84,WNW,292,7.0,16.0,91,0.00,,---,0.00,VWS V14.01,2013-03-11 05:40:00,
2013-03-11 00:54:00,28.2,25.6,29.84,West,279,8.0,15.0,90,0.00,,---,0.00,VWS V14.01,2013-03-11 05:54:00,
2013-03-11 01:10:00,28.3,25.8,29.84,NW,306,5.0,14.0,90,0.00,,---,0.00,VWS V14.01,2013-03-11 06:10:00,
2013-03-11 01:24:00,28.3,25.8,29.84,NW,310,3.0,12.0,90,0.00,,---,0.00,VWS V14.01,2013-03-11 06:24:00,
2013-03-11 01:40:00,28.4,25.6,29.84,WNW,289,7.0,12.0,89,0.00,,---,0.00,VWS V14.01,2013-03-11 06:40:00,
2013-03-11 01:55:00,28.4,25.6,29.84,NW,319,4.0,15.0,89,0.00,,---,0.00,VWS V14.01,2013-03-11 06:55:00,
2013-03-11 02:10:00,28.5,25.4,29.85,WNW,296,7.0,16.0,88,0.00,,---,0.00,VWS V14.01,2013-03-11 07:10:00,
2013-03-11 02:25:00,28.4,25.3,29.85,NW,307,6.0,17.0,88,0.00,,---,0.00,VWS V14.01,2013-03-11 07:25:00,
2013-03-11 02:40:00,28.1,24.5,29.84,NW,311,7.0,18.0,86,0.00,,---,0.00,VWS V14.01,2013-03-11 07:40:00,
2013-03-11 02:55:00,28.0,24.4,29.84,NW,321,8.0,19.0,86,0.00,,---,0.00,VWS V14.01,2013-03-11 07:55:00,
2013-03-11 03:10:00,27.8,23.9,29.84,NW,325,7.0,18.0,85,0.00,,---,0.00,VWS V14.01,2013-03-11 08:10:00,
2013-03-11 03:25:00,27.7,24.1,29.84,WNW,293,13.0,18.0,86,0.00,,---,0.00,VWS V14.01,2013-03-11 08:25:00,
2013-03-11 03:40:00,27.6,23.7,29.83,NNW,332,7.0,19.0,85,0.00,,---,0.00,VWS V14.01,2013-03-11 08:40:00,
2013-03-11 03:55:00,27.4,23.8,29.83,WNW,283,12.0,18.0,86,0.00,,---,0.00,VWS V14.01,2013-03-11 08:55:00,
2013-03-11 04:10:00,27.1,23.8,29.83,WNW,292,8.0,19.0,87,0.00,,---,0.00,VWS V14.01,2013-03-11 09:10:00,
2013-03-11 04:25:00,27.0,23.6,29.83,NW,313,4.0,17.0,87,0.00,,---,0.00,VWS V14.01,2013-03-11 09:25:00,
2013-03-11 04:40:00,26.7,23.4,29.83,WNW,288,10.0,15.0,87,0.00,,---,0.00,VWS V14.01,2013-03-11 09:40:00,
2013-03-11 04:55:00,26.6,23.5,29.83,WNW,285,12.0,16.0,88,0.00,,---,0.00,VWS V14.01,2013-03-11 09:55:00,
2013-03-11 05:10:00,26.4,23.3,29.83,WNW,297,6.0,15.0,88,0.00,,---,0.00,VWS V14.01,2013-03-11 10:10:00,
2013-03-11 05:25:00,26.2,23.1,29.83,WNW,302,7.0,18.0,88,0.00,,---,0.00,VWS V14.01,2013-03-11 10:25:00,
2013-03-11 05:40:00,26.2,22.9,29.84,WNW,293,8.0,19.0,87,0.00,,---,0.00,VWS V14.01,2013-03-11 10:40:00,
2013-03-11 05:55:00,26.1,22.8,29.85,North,5,7.0,17.0,87,0.00,,---,0.00,VWS V14.01,2013-03-11 10:55:00,
2013-03-11 06:10:00,26.1,22.8,29.85,WNW,287,4.0,13.0,87,0.00,,---,0.00,VWS V14.01,2013-03-11 11:10:00,
2013-03-11 06:25:00,26.2,22.9,29.86,WNW,285,11.0,14.0,87,0.00,,---,0.00,VWS V14.01,2013-03-11 11:25:00,
2013-03-11 06:40:00,26.2,22.9,29.87,WNW,293,9.0,15.0,87,0.00,,---,0.00,VWS V14.01,2013-03-11 11:40:00,
2013-03-11 06:55:00,26.3,23.0,29.87,WNW,284,10.0,15.0,87,0.00,,---,0.00,VWS V14.01,2013-03-11 11:55:00,
2013-03-11 07:10:00,26.4,23.1,29.88,WNW,289,7.0,14.0,87,0.00,,---,0.00,VWS V14.01,2013-03-11 12:10:00,
2013-03-11 07:25:00,26.4,23.1,29.89,WNW,284,3.0,14.0,87,0.00,,---,0.00,VWS V14.01,2013-03-11 12:25:00,
2013-03-11 07:40:00,26.1,22.8,29.89,West,263,6.0,14.0,87,0.00,,---,0.00,VWS V14.01,2013-03-11 12:40:00,
2013-03-11 07:55:00,25.9,22.6,29.89,WNW,296,7.0,18.0,87,0.00,,---,0.00,VWS V14.01,2013-03-11 12:55:00,
2013-03-11 08:10:00,25.6,22.3,29.89,WNW,288,17.0,19.0,87,0.00,,---,0.00,VWS V14.01,2013-03-11 13:10:00,
2013-03-11 08:25:00,25.4,22.1,29.89,NW,320,8.0,17.0,87,0.00,,---,0.00,VWS V14.01,2013-03-11 13:25:00,
2013-03-11 08:40:00,25.2,21.9,29.89,West,260,3.0,17.0,87,0.00,,---,0.00,VWS V14.01,2013-03-11 13:40:00,
2013-03-11 08:55:00,25.3,22.2,29.89,WNW,287,8.0,15.0,88,0.00,,---,0.00,VWS V14.01,2013-03-11 13:55:00,
2013-03-11 09:10:00,25.2,21.9,29.90,WNW,288,4.0,17.0,87,0.00,,---,0.00,VWS V14.01,2013-03-11 14:10:00,
2013-03-11 09:25:00,25.3,22.0,29.90,West,278,4.0,16.0,87,0.00,,---,0.00,VWS V14.01,2013-03-11 14:25:00,
2013-03-11 09:40:00,25.3,21.7,29.91,SSW,207,1.0,17.0,86,0.00,,---,0.00,VWS V14.01,2013-03-11 14:40:00,
2013-03-11 09:55:00,25.4,21.8,29.91,West,265,4.0,15.0,86,0.00,,---,0.00,VWS V14.01,2013-03-11 14:55:00,
2013-03-11 10:10:00,25.6,22.3,29.91,WNW,291,8.0,13.0,87,0.00,,---,0.00,VWS V14.01,2013-03-11 15:10:00,
2013-03-11 10:25:00,25.7,22.4,29.91,WNW,290,8.0,17.0,87,0.00,,---,0.00,VWS V14.01,2013-03-11 15:25:00,
2013-03-11 10:40:00,25.9,22.3,29.92,WNW,284,11.0,17.0,86,0.00,,---,0.00,VWS V14.01,2013-03-11 15:40:00,
2013-03-11 10:55:00,26.1,22.2,29.92,WNW,289,11.0,15.0,85,0.00,,---,0.00,VWS V14.01,2013-03-11 15:55:00,
2013-03-11 11:10:00,26.0,22.1,29.92,WNW,283,17.0,23.0,85,0.00,,---,0.00,VWS V14.01,2013-03-11 16:10:00,
2013-03-11 11:25:00,26.5,22.6,29.92,WNW,295,13.0,18.0,85,0.00,,---,0.00,VWS V14.01,2013-03-11 16:25:00,
2013-03-11 11:40:00,26.6,22.7,29.92,WNW,290,6.0,16.0,85,0.00,,---,0.00,VWS V14.01,2013-03-11 16:40:00,
2013-03-11 11:55:00,26.8,22.9,29.93,WNW,296,9.0,17.0,85,0.00,,---,0.00,VWS V14.01,2013-03-11 16:55:00,
2013-03-11 12:10:00,26.9,22.7,29.93,WNW,282,7.0,16.0,84,0.00,,---,0.00,VWS V14.01,2013-03-11 17:10:00,
2013-03-11 12:25:00,27.8,24.2,29.93,West,268,6.0,13.0,86,0.00,,---,0.00,VWS V14.01,2013-03-11 17:25:00,
2013-03-11 12:40:00,27.9,23.4,29.93,WNW,285,11.0,19.0,83,0.00,,---,0.00,VWS V14.01,2013-03-11 17:40:00,
2013-03-11 12:55:00,28.0,23.8,29.93,West,274,5.0,17.0,84,0.00,,---,0.00,VWS V14.01,2013-03-11 17:55:00,
2013-03-11 13:10:00,29.0,24.8,29.92,WSW,257,4.0,16.0,84,0.00,,---,0.00,VWS V14.01,2013-03-11 18:10:00,
2013-03-11 13:25:00,29.7,24.9,29.93,West,265,12.0,14.0,82,0.00,,---,0.00,VWS V14.01,2013-03-11 18:25:00,
2013-03-11 13:40:00,29.8,25.0,29.92,WNW,293,10.0,13.0,82,0.00,,---,0.00,VWS V14.01,2013-03-11 18:40:00,
2013-03-11 13:55:00,30.2,24.8,29.93,West,271,5.0,14.0,80,0.00,,---,0.00,VWS V14.01,2013-03-11 18:55:00,
2013-03-11 14:10:00,29.7,24.6,29.93,WSW,257,3.0,17.0,81,0.00,,---,0.00,VWS V14.01,2013-03-11 19:10:00,
2013-03-11 14:25:00,29.6,24.2,29.93,WNW,283,5.0,15.0,80,0.00,,---,0.00,VWS V14.01,2013-03-11 19:25:00,
2013-03-11 14:40:00,29.5,23.5,29.92,WNW,294,6.0,16.0,78,0.00,,---,0.00,VWS V14.01,2013-03-11 19:40:00,
2013-03-11 14:55:00,29.8,24.1,29.92,WNW,292,4.0,16.0,79,0.00,,---,0.00,VWS V14.01,2013-03-11 19:55:00,
2013-03-11 15:10:00,30.4,24.7,29.92,West,280,5.0,15.0,79,0.00,,---,0.00,VWS V14.01,2013-03-11 20:10:00,
2013-03-11 15:25:00,29.8,23.5,29.92,WNW,288,16.0,17.0,77,0.00,,---,0.00,VWS V14.01,2013-03-11 20:25:00,
2013-03-11 15:40:00,30.4,25.0,29.92,West,267,5.0,16.0,80,0.00,,---,0.00,VWS V14.01,2013-03-11 20:40:00,
2013-03-11 15:55:00,31.1,24.1,29.92,WNW,283,12.0,15.0,75,0.00,,---,0.00,VWS V14.01,2013-03-11 20:55:00,
2013-03-11 16:10:00,32.0,24.7,29.91,WSW,251,4.0,13.0,74,0.00,,---,0.00,VWS V14.01,2013-03-11 21:10:00,
2013-03-11 16:25:00,31.9,24.9,29.91,WNW,286,6.0,12.0,75,0.00,,---,0.00,VWS V14.01,2013-03-11 21:25:00,
2013-03-11 16:40:00,32.9,25.2,29.92,WNW,299,7.0,13.0,73,0.00,,---,0.00,VWS V14.01,2013-03-11 21:40:00,
2013-03-11 16:55:00,32.7,25.3,29.92,WNW,289,5.0,14.0,74,0.00,,---,0.00,VWS V14.01,2013-03-11 21:55:00,
2013-03-11 17:10:00,33.2,24.5,29.92,West,280,3.0,11.0,70,0.00,,---,0.00,VWS V14.01,2013-03-11 22:10:00,
2013-03-11 17:25:00,33.8,25.4,29.93,SW,215,4.0,13.0,71,0.00,,---,0.00,VWS V14.01,2013-03-11 22:25:00,
2013-03-11 17:40:00,33.9,24.5,29.93,WNW,284,4.0,14.0,68,0.00,,---,0.00,VWS V14.01,2013-03-11 22:40:00,
2013-03-11 17:55:00,34.1,24.3,29.93,ESE,109,0.0,12.0,67,0.00,,---,0.00,VWS V14.01,2013-03-11 22:55:00,
2013-03-11 18:10:00,34.4,24.6,29.93,West,279,0.0,12.0,67,0.00,,---,0.00,VWS V14.01,2013-03-11 23:10:00,
2013-03-11 18:25:00,34.2,24.8,29.93,West,281,6.0,9.0,68,0.00,,---,0.00,VWS V14.01,2013-03-11 23:25:00,
2013-03-11 18:40:00,34.0,24.6,29.93,SW,235,1.0,9.0,68,0.00,,---,0.00,VWS V14.01,2013-03-11 23:40:00,
2013-03-11 18:55:00,33.5,24.4,29.94,SW,231,1.0,9.0,69,0.00,,---,0.00,VWS V14.01,2013-03-11 23:55:00,
2013-03-11 19:10:00,33.2,24.5,29.94,SW,234,0.0,4.0,70,0.00,,---,0.00,VWS V14.01,2013-03-12 00:10:00,
2013-03-11 19:25:00,32.6,24.6,29.96,WSW,240,1.0,5.0,72,0.00,,---,0.00,VWS V14.01,2013-03-12 00:25:00,
2013-03-11 19:40:00,31.9,24.6,29.97,WSW,242,2.0,5.0,74,0.00,,---,0.00,VWS V14.01,2013-03-12 00:40:00,
2013-03-11 19:55:00,32.1,24.1,29.97,West,281,3.0,7.0,72,0.00,,---,0.00,VWS V14.01,2013-03-12 00:55:00,
2013-03-11 20:10:00,32.3,24.0,29.96,West,281,0.0,6.0,71,0.00,,---,0.00,VWS V14.01,2013-03-12 01:10:00,
2013-03-11 20:25:00,31.9,23.9,29.96,West,281,0.0,2.0,72,0.00,,---,0.00,VWS V14.01,2013-03-12 01:25:00,
2013-03-11 20:40:00,31.5,23.5,29.97,West,281,0.0,1.0,72,0.00,,---,0.00,VWS V14.01,2013-03-12 01:40:00,
2013-03-11 20:55:00,31.0,23.7,29.98,West,281,0.0,2.0,74,0.00,,---,0.00,VWS V14.01,2013-03-12 01:55:00,
2013-03-11 21:10:00,30.3,23.0,29.97,West,281,0.0,1.0,74,0.00,,---,0.00,VWS V14.01,2013-03-12 02:10:00,
2013-03-11 21:25:00,29.9,23.3,29.98,West,281,0.0,0.0,76,0.00,,---,0.00,VWS V14.01,2013-03-12 02:25:00,
2013-03-11 21:40:00,29.3,23.0,29.97,West,281,0.0,0.0,77,0.00,,---,0.00,VWS V14.01,2013-03-12 02:40:00,
2013-03-11 21:55:00,29.2,23.2,29.98,West,281,0.0,0.0,78,0.00,,---,0.00,VWS V14.01,2013-03-12 02:55:00,
2013-03-11 22:10:00,29.0,23.3,29.98,West,281,0.0,0.0,79,0.00,,---,0.00,VWS V14.01,2013-03-12 03:10:00,
2013-03-11 22:25:00,28.7,23.3,29.98,West,281,0.0,0.0,80,0.00,,---,0.00,VWS V14.01,2013-03-12 03:25:00,
2013-03-11 22:40:00,28.5,22.8,29.98,West,281,0.0,0.0,79,0.00,,---,0.00,VWS V14.01,2013-03-12 03:40:00,
2013-03-11 22:55:00,28.0,22.6,30.00,West,281,0.0,0.0,80,0.00,,---,0.00,VWS V14.01,2013-03-12 03:55:00,
2013-03-11 23:10:00,27.8,22.7,29.99,West,281,0.0,0.0,81,0.00,,---,0.00,VWS V14.01,2013-03-12 04:10:00,
2013-03-11 23:25:00,27.4,22.6,29.99,West,281,0.0,1.0,82,0.00,,---,0.00,VWS V14.01,2013-03-12 04:25:00,
2013-03-11 23:40:00,27.0,23.4,30.01,West,281,0.0,1.0,86,0.00,,---,0.00,VWS V14.01,2013-03-12 04:40:00,
2013-03-11 23:55:00,27.0,23.4,30.01,West,281,0.0,2.0,86,0.00,,---,0.00,VWS V14.01,2013-03-12 04:55:00,